Flag for Denmark Weather past 2 weeks in Vejle, Denmark

Now
57 °F

Partly sunny.


Feels Like: 55 °F
Forecast: 49 / 58 °F
Wind: 8 mph from West

Location: Billund Lufthavn

Current Time: Oct 25, 2014 at 3:13:23 PM

Latest Report: Oct 25, 2014 at 2:50 PM


Visibility: N/A

Pressure: 29.98 "Hg

Humidity: 77%

Dew point: 50 °F

Location of VejleLocation

Historic Weather in Vejle — Graph

°F

Vejle temperature yesterday

Maximum temperature yesterday: 54 °F (at 12:20 AM)
Minimum temperature yesterday: 50 °F (at 9:50 PM)
Average temperature yesterday: 52 °F

Past Weeks' High & Low Weather Summary

 TemperatureHumidityPressure
High63 °F (Oct 11, 2:20 PM)100% (Oct 10, 10:50 PM)30.09 "Hg (Oct 10, 10:50 PM)
Low39 °F (Oct 12, 10:50 PM)64% (Oct 11, 2:20 PM)29.27 "Hg (Oct 21, 5:20 PM)
Average53 °F93%29.81 "Hg
* Reported Oct 10 2:20 PM — Oct 25 2:20 PM, Vejle, Weather by CustomWeather, © 2014

Note: Actual official high and low records may vary slightly from our data, if they occured in-between our weather recording intervals... More about our weather records

Advertising

Vejle weather history for previous 24 hours

 ConditionsComfort  
Time TempWeatherWind HumidityBarometerVisibility
2:20 PM
Oct 25
55 °FBroken clouds.9 mph88%29.95 "HgN/A
1:50 PM55 °FPartly sunny.7 mph88%29.95 "HgN/A
1:20 PM55 °FPartly sunny.8 mph88%29.95 "HgN/A
12:50 PM55 °FBroken clouds.6 mph88%29.95 "HgN/A
12:20 PM55 °FBroken clouds.6 mph94%29.95 "HgN/A
11:50 AM55 °FPartly sunny.5 mph94%29.95 "Hg4 mi
11:20 AM54 °FLow clouds.5 mph100%29.95 "Hg3 mi
10:50 AM54 °FFog.6 mph100%29.95 "Hg3 mi
10:20 AM54 °FLow clouds.7 mph100%29.92 "Hg4 mi
9:50 AM54 °FSprinkles. Fog.9 mph94%29.92 "Hg2 mi
9:20 AM54 °FSprinkles. Low clouds.8 mph94%29.92 "Hg4 mi
8:50 AM52 °FSprinkles. Fog.10 mph100%29.92 "Hg2 mi
8:20 AM52 °FSprinkles. Fog.10 mph100%29.89 "Hg2 mi
7:50 AM52 °FSprinkles. Fog.9 mph100%29.89 "Hg2 mi
7:20 AM52 °FSprinkles. Fog.9 mph100%29.89 "Hg2 mi
6:50 AM52 °FDrizzle. Fog.10 mph100%29.89 "Hg3 mi
6:20 AM52 °FRain. Passing clouds.10 mph100%29.89 "Hg1 mi
5:50 AM52 °FRain. Fog.12 mph100%29.89 "Hg2 mi
5:20 AM52 °FRain. Fog.10 mph100%29.89 "Hg2 mi
4:50 AM52 °FRain. Fog.9 mph94%29.89 "Hg2 mi
4:20 AM52 °FSprinkles. Fog.10 mph94%29.89 "Hg1 mi
3:50 AM50 °FSprinkles. Fog.12 mph100%29.89 "Hg1 mi
3:20 AM50 °FFog.13 mph100%29.89 "Hg1 mi
2:50 AM50 °FFog.13 mph100%29.92 "Hg1 mi
1:50 AM50 °FDrizzle. Low clouds.13 mph100%29.92 "Hg2 mi
12:50 AM50 °FFog.10 mph94%29.92 "Hg2 mi
12:20 AM50 °FFog.12 mph100%29.95 "Hg2 mi
11:50 PM
Oct 24
50 °FFog.13 mph94%29.95 "Hg2 mi
11:20 PM50 °FPassing clouds.12 mph100%29.95 "Hg2 mi
10:50 PM50 °FLight rain. Passing clouds.13 mph100%29.95 "Hg3 mi
10:20 PM50 °FLight rain. Passing clouds.12 mph100%29.95 "Hg3 mi
9:50 PM50 °FLight rain. Partly cloudy.10 mph100%29.98 "Hg3 mi
9:20 PM52 °FLight rain. Partly cloudy.12 mph94%29.98 "Hg2 mi
8:50 PM52 °FLight rain. Partly cloudy.13 mph94%29.98 "Hg2 mi
8:20 PM52 °FRain. Partly cloudy.12 mph94%29.98 "Hg2 mi
7:50 PM52 °FDrizzle. Low clouds.12 mph94%29.98 "Hg2 mi
7:20 PM52 °FLight rain. Low clouds.12 mph94%29.98 "Hg3 mi
6:50 PM52 °FLight rain. Overcast.12 mph94%29.98 "Hg4 mi
6:20 PM52 °FLight rain. Overcast.10 mph94%29.98 "Hg6 mi
5:50 PM52 °FBroken clouds.13 mph94%29.98 "Hg5 mi
4:50 PM52 °FBroken clouds.12 mph94%29.98 "Hg6 mi
4:20 PM52 °FBroken clouds.13 mph94%29.98 "Hg5 mi
3:50 PM52 °FLight rain. Broken clouds.14 mph94%29.98 "Hg3 mi
3:20 PM52 °FDrizzle. Broken clouds.12 mph100%30.01 "Hg2 mi
Weather by CustomWeather, © 2014

See weather overviewHow to use our weather pages